Terminal Aerodrome Forecast
Issued by NWS Louisville, KY

Home | Current Version | Previous Version | Text Only | Print | Product List | Glossary On
Versions: 1 2 3 4 5 6 7 8 9 10 11 12 13 14 15 16 17 18 19 20 21
000
FTUS43 KLMK 171100
TAFSDF
TAF
KSDF 171122Z 1712/1818 15010KT P6SM FEW250
     FM171400 23012G18KT P6SM FEW040
     FM180000 29009KT P6SM SCT040
     FM181200 31009KT P6SM BKN025=

USA.gov is the U.S. government's official web portal to all federal, state and local government web resources and services.